Rifle, CO

3:47 AM MST on February 09, 2016 (GMT -0700)
Garfield County Regional

Weather History for KRIL - August, 2013

Change the Weather History Date:

Wednesday, August 21, 2013

  Actual Average Record
Temperature  
Mean Temperature 73 °F 70 °F  
Max Temperature 92 °F 87 °F 96 °F (1931)
Min Temperature 54 °F 52 °F 35 °F (1937)
Degree Days  
Heating Degree Days 0 0  
Month to date heating degree days 0 0  
Since 1 June heating degree days 13 60  
Since 1 July heating degree days 0 1  
Cooling Degree Days 8 5  
Month to date cooling degree days 126 139  
Year to date cooling degree days 623 482  
Since 1 June cooling degree days 616 475  
Growing Degree Days 23 (Base 50)    
Moisture  
Dew Point 49 °F    
Average Humidity 53    
Maximum Humidity 87    
Minimum Humidity 18    
Precipitation  
Precipitation 0.00 in 0.04 in 0.52 in (1951)
Month to date precipitation 0.10 0.93  
Year to date precipitation 4.86 8.50  
Sea Level Pressure  
Sea Level Pressure 29.99 in    
Wind  
Wind Speed 5 mph (SSW)    
Max Wind Speed 22 mph    
Max Gust Speed 26 mph    
Visibility 10 miles    
Events      
T = Trace of Precipitation, MM = Missing Value Source: NWS Daily Summary

Daily Weather History Graph

Daily Weather History Graph

Search for Another Location

Airport or City:

Trip Planner

Search our weather history database for the weather conditions in past years. The results will help you decide how hot, cold, wet, or windy it might be!

Date:

Astronomy

Aug. 21, 2013 Rise Set
Actual Time 6:29 AM MDT 7:57 PM MDT
Civil Twilight 6:00 AM MDT 8:26 PM MDT
Nautical Twilight 5:26 AM MDT 9:00 PM MDT
Astronomical Twilight 4:50 AM MDT 9:35 PM MDT
Moon 8:09 PM MDT (8/21) 7:12 AM MDT (8/21)
Length of Visible Light 14h 25m
Length of Day
13h 28m
Full, 99% of the Moon is Illuminated
Aug 21
Full
Aug 28
Last Quarter
Sep 5
New
Sep 12
First Quarter
Sep 19
Full

Hourly Weather History & Observations

Time (MDT) Temp. Dew Point Humidity Pressure Visibility Wind Dir Wind Speed Gust Speed Precip Events Conditions
12:53 AM 60.1 °F 55.9 °F 86% 30.01 in 10.0 mi Calm Calm - N/A   Clear
1:53 AM 59.0 °F 55.0 °F 87% 29.99 in 10.0 mi East 4.6 mph - N/A   Clear
2:53 AM 59.0 °F 53.1 °F 81% 30.01 in 10.0 mi ENE 5.8 mph - N/A   Clear
3:53 AM 57.0 °F 54.0 °F 89% 30.03 in 10.0 mi South 6.9 mph - N/A   Partly Cloudy
4:53 AM 55.9 °F 52.0 °F 87% 30.05 in 10.0 mi ESE 8.1 mph - N/A   Clear
5:53 AM 55.9 °F 51.1 °F 84% 30.06 in 10.0 mi ESE 9.2 mph - N/A   Clear
6:53 AM 55.9 °F 51.1 °F 84% 30.10 in 10.0 mi East 5.8 mph - N/A   Clear
7:53 AM 60.1 °F 53.1 °F 78% 30.10 in 10.0 mi Variable 3.5 mph - N/A   Clear
8:53 AM 64.9 °F 54.0 °F 68% 30.09 in 10.0 mi Variable 3.5 mph - N/A   Clear
9:53 AM 69.1 °F 53.1 °F 57% 30.07 in 10.0 mi Variable 4.6 mph - N/A   Clear
10:53 AM 73.0 °F 53.1 °F 49% 30.06 in 10.0 mi Calm Calm - N/A   Clear
11:53 AM 78.1 °F 52.0 °F 40% 30.03 in 10.0 mi Calm Calm - N/A   Clear
12:53 PM 82.0 °F 48.9 °F 31% 30.00 in 10.0 mi Calm Calm - N/A   Clear
1:53 PM 87.1 °F 48.0 °F 26% 29.95 in 10.0 mi Variable 4.6 mph - N/A   Clear
2:53 PM 90.0 °F 45.0 °F 21% 29.91 in 10.0 mi NW 10.4 mph 16.1 mph N/A   Clear
3:53 PM 89.1 °F 44.1 °F 21% 29.91 in 10.0 mi West 10.4 mph - N/A   Clear
4:53 PM 91.0 °F 41.0 °F 17% 29.88 in 10.0 mi Calm Calm - N/A   Clear
5:53 PM 89.1 °F 41.0 °F 19% 29.88 in 10.0 mi West 9.2 mph - N/A   Clear
6:53 PM 87.1 °F 43.0 °F 21% 29.89 in 10.0 mi West 9.2 mph - N/A   Clear
7:53 PM 84.0 °F 41.0 °F 22% 29.91 in 10.0 mi West 6.9 mph - N/A   Clear
8:53 PM 80.1 °F 45.0 °F 29% 29.93 in 10.0 mi SSE 21.9 mph 26.5 mph N/A   Clear
9:53 PM 78.1 °F 44.1 °F 30% 29.95 in 10.0 mi Calm Calm - N/A   Clear
10:53 PM 73.9 °F 45.0 °F 35% 29.98 in 10.0 mi SW 5.8 mph - N/A   Clear
11:53 PM 72.0 °F 46.9 °F 41% 29.98 in 10.0 mi Calm Calm - N/A   Clear